Weather History for Benson, MN

Change the Weather History Date:

Tuesday, May 21, 2013

  Actual Average Record
Temperature  
Mean Temperature 54 °F -  
Max Temperature 60 °F 73 °F 104 °F (1997)
Min Temperature 48 °F 48 °F 28 °F (2008)
Degree Days  
Heating Degree Days 11    
Growing Degree Days 4 (Base 50)    
Moisture  
Dew Point 51 °F    
Average Humidity 93    
Maximum Humidity 100    
Minimum Humidity 82    
Precipitation  
Precipitation 0.97 in - - ()
Sea Level Pressure  
Sea Level Pressure 29.60 in    
Wind  
Wind Speed 10 mph (East)    
Max Wind Speed 15 mph    
Max Gust Speed 20 mph    
Visibility 8 miles    
Events Rain    
Averages and records for this station are not official NWS values.
T = Trace of Precipitation, MM = Missing Value Source: NWS Daily Summary

Daily Weather History Graph

Daily Weather History Graph

Search for Another Location

Airport:

Trip Planner

Search our weather history database for the weather conditions in past years. The results will help you decide how hot, cold, wet, or windy it might be!

Date:

Astronomy

May. 21, 2013 Rise Set
Actual Time 5:46 AM CDT 8:53 PM CDT
Civil Twilight 5:10 AM CDT 9:28 PM CDT
Nautical Twilight 4:25 AM CDT 10:14 PM CDT
Astronomical Twilight 3:29 AM CDT 11:10 PM CDT
Moon 4:58 PM CDT (5/21) 3:25 AM CDT (5/21)
Length of Visible Light 16h 17m
Length of Day
15h 07m
Waxing Gibbous, 84% of the Moon is Illuminated
May 21
Waxing Gibbous
May 24
Full
May 31
Last Quarter
Jun 8
New
Jun 16
First Quarter

Hourly Weather History & Observations

Time (CDT) Temp. Dew Point Humidity Pressure Visibility Wind Dir Wind Speed Gust Speed Precip Events Conditions
12:13 AM 60.8 °F 55.4 °F 82% 29.49 in 10.0 mi SSE 10.4 mph - N/A   Overcast
12:32 AM 60.8 °F 55.4 °F 82% 29.49 in 10.0 mi SSE 6.9 mph - N/A   Overcast
12:52 AM 60.8 °F 55.4 °F 82% 29.50 in 10.0 mi SE 10.4 mph - N/A   Overcast
1:13 AM 60.8 °F 55.4 °F 82% 29.50 in 7.0 mi SE 6.9 mph - N/A Rain Light Rain
1:32 AM 59.0 °F 55.4 °F 88% 29.50 in 7.0 mi South 6.9 mph - 0.01 in   Heavy Drizzle
1:52 AM 57.2 °F 57.2 °F 100% 29.50 in 5.0 mi ESE 3.5 mph - 0.01 in   Drizzle
2:13 AM 57.2 °F 55.4 °F 94% 29.49 in 10.0 mi East 4.6 mph - 0.02 in   Overcast
2:32 AM 57.2 °F 55.4 °F 94% 29.49 in 10.0 mi Calm Calm - 0.02 in   Overcast
2:52 AM 59.0 °F 57.2 °F 94% 29.49 in 10.0 mi ESE 3.5 mph - 0.02 in   Overcast
3:13 AM 59.0 °F 57.2 °F 94% 29.48 in 10.0 mi ESE 4.6 mph - 0.01 in Rain Light Rain
3:32 AM 59.0 °F 57.2 °F 94% 29.49 in 5.0 mi East 6.9 mph - 0.02 in Rain Light Rain
3:52 AM 57.2 °F 55.4 °F 94% 29.49 in 4.0 mi East 9.2 mph - 0.15 in Rain Heavy Rain
4:12 AM 55.4 °F 55.4 °F 100% 29.49 in 5.0 mi East 12.7 mph 16.1 mph 0.05 in Rain Light Rain
4:32 AM 55.4 °F 55.4 °F 100% 29.50 in 7.0 mi East 9.2 mph 16.1 mph 0.07 in   Light Drizzle
4:53 AM 55.4 °F 53.6 °F 94% 29.50 in 7.0 mi East 11.5 mph 17.3 mph 0.07 in   Overcast
5:12 AM 53.6 °F 53.6 °F 100% 29.51 in 4.0 mi East 12.7 mph 17.3 mph N/A Rain Rain
5:32 AM 53.6 °F 53.6 °F 100% 29.51 in 4.0 mi East 8.1 mph 18.4 mph 0.03 in Rain Rain
5:53 AM 53.6 °F 53.6 °F 100% 29.51 in 7.0 mi ESE 10.4 mph 16.1 mph 0.04 in Rain Light Rain
6:12 AM 53.6 °F 51.8 °F 94% 29.51 in 7.0 mi East 12.7 mph 18.4 mph 0.03 in Rain Light Rain
6:32 AM 53.6 °F 51.8 °F 94% 29.52 in 4.0 mi East 8.1 mph 16.1 mph 0.04 in Rain Rain
6:53 AM 51.8 °F 51.8 °F 100% 29.52 in 5.0 mi East 11.5 mph 16.1 mph 0.05 in   Drizzle
7:12 AM 51.8 °F 51.8 °F 100% 29.53 in 7.0 mi East 12.7 mph 16.1 mph N/A   Drizzle
7:32 AM 51.8 °F 51.8 °F 100% 29.53 in 10.0 mi East 13.8 mph 19.6 mph N/A   Overcast
7:53 AM 51.8 °F 50.0 °F 94% 29.53 in 10.0 mi East 12.7 mph 17.3 mph N/A   Overcast
8:12 AM 51.8 °F 50.0 °F 94% 29.53 in 10.0 mi East 10.4 mph - N/A   Overcast
8:33 AM 51.8 °F 50.0 °F 94% 29.54 in 10.0 mi East 13.8 mph - N/A   Overcast
8:53 AM 51.8 °F 50.0 °F 94% 29.55 in 10.0 mi East 11.5 mph - N/A   Overcast
9:12 AM 51.8 °F 50.0 °F 94% 29.55 in 10.0 mi East 12.7 mph - N/A   Overcast
9:33 AM 51.8 °F 50.0 °F 94% 29.56 in 4.0 mi East 11.5 mph - N/A   Overcast
9:52 AM 51.8 °F 50.0 °F 94% 29.56 in 4.0 mi East 13.8 mph 18.4 mph N/A   Overcast
10:12 AM 51.8 °F 50.0 °F 94% 29.56 in 10.0 mi East 10.4 mph 18.4 mph N/A   Light Drizzle
10:33 AM 51.8 °F 50.0 °F 94% 29.57 in 7.0 mi East 13.8 mph 18.4 mph N/A   Drizzle
10:52 AM 51.8 °F 50.0 °F 94% 29.58 in 4.0 mi East 11.5 mph 19.6 mph N/A   Drizzle
11:12 AM 51.8 °F 48.2 °F 88% 29.58 in 2.5 mi East 12.7 mph 18.4 mph 0.02 in Rain Heavy Rain
11:33 AM 51.8 °F 48.2 °F 88% 29.58 in 3.0 mi East 11.5 mph - 0.06 in Rain Light Rain
11:52 AM 51.8 °F 50.0 °F 94% 29.59 in 2.5 mi East 12.7 mph 19.6 mph 0.09 in Rain Light Rain
12:12 PM 51.8 °F 50.0 °F 94% 29.59 in 3.0 mi East 11.5 mph 16.1 mph 0.03 in Rain Light Rain
12:33 PM 51.8 °F 48.2 °F 88% 29.60 in 3.0 mi East 11.5 mph - 0.06 in Rain Rain
12:52 PM 51.8 °F 50.0 °F 94% 29.60 in 3.0 mi East 10.4 mph - 0.08 in Rain Light Rain
1:12 PM 51.8 °F 50.0 °F 94% 29.61 in 2.5 mi East 11.5 mph 16.1 mph 0.03 in Rain Light Rain
1:33 PM 51.8 °F 50.0 °F 94% 29.62 in 4.0 mi East 11.5 mph - 0.07 in Rain Light Rain
1:52 PM 51.8 °F 50.0 °F 94% 29.62 in 5.0 mi East 15.0 mph 19.6 mph 0.11 in Rain Light Rain
2:13 PM 51.8 °F 50.0 °F 94% 29.62 in 7.0 mi East 9.2 mph - 0.02 in Rain Rain
2:33 PM 51.8 °F 50.0 °F 94% 29.62 in 7.0 mi East 13.8 mph 18.4 mph 0.03 in Rain Rain
2:52 PM 51.8 °F 50.0 °F 94% 29.63 in 7.0 mi East 12.7 mph 17.3 mph 0.04 in Rain Light Rain
3:13 PM 51.8 °F 48.2 °F 88% 29.64 in 10.0 mi East 11.5 mph 18.4 mph 0.01 in Rain Rain
3:33 PM 51.8 °F 50.0 °F 94% 29.65 in 10.0 mi East 12.7 mph 19.6 mph 0.03 in Rain Light Rain
3:52 PM 51.8 °F 48.2 °F 88% 29.65 in 10.0 mi East 12.7 mph - 0.05 in Rain Light Rain
4:13 PM 51.8 °F 48.2 °F 88% 29.66 in 10.0 mi East 11.5 mph 18.4 mph 0.01 in Rain Light Rain
4:32 PM 51.8 °F 50.0 °F 94% 29.66 in 10.0 mi East 10.4 mph - 0.03 in Rain Light Rain
4:52 PM 51.8 °F 50.0 °F 94% 29.67 in 10.0 mi East 8.1 mph 16.1 mph 0.05 in Rain Light Rain
5:13 PM 51.8 °F 50.0 °F 94% 29.68 in 7.0 mi East 9.2 mph - 0.02 in Rain Light Rain
5:32 PM 51.8 °F 50.0 °F 94% 29.68 in 10.0 mi East 9.2 mph - 0.04 in Rain Light Rain
5:52 PM 51.8 °F 50.0 °F 94% 29.68 in 10.0 mi East 10.4 mph - 0.07 in Rain Light Rain
6:13 PM 51.8 °F 48.2 °F 88% 29.68 in 10.0 mi East 10.4 mph 18.4 mph 0.01 in Rain Light Rain
6:32 PM 51.8 °F 48.2 °F 88% 29.69 in 10.0 mi East 12.7 mph 18.4 mph 0.02 in Rain Light Rain
6:52 PM 51.8 °F 48.2 °F 88% 29.68 in 10.0 mi East 11.5 mph 19.6 mph 0.02 in Rain Rain
7:13 PM 51.8 °F 48.2 °F 88% 29.69 in 10.0 mi East 11.5 mph 17.3 mph N/A   Light Drizzle
7:32 PM 51.8 °F 48.2 °F 88% 29.69 in 10.0 mi East 11.5 mph 18.4 mph N/A   Light Drizzle
7:52 PM 51.8 °F 48.2 °F 88% 29.69 in 10.0 mi East 9.2 mph - 0.01 in   Light Drizzle
8:13 PM 51.8 °F 48.2 °F 88% 29.70 in 10.0 mi East 9.2 mph 17.3 mph N/A   Drizzle
8:32 PM 50.0 °F 48.2 °F 94% 29.71 in 10.0 mi East 10.4 mph - N/A   Drizzle
8:53 PM 50.0 °F 48.2 °F 94% 29.71 in 10.0 mi East 8.1 mph - 0.01 in Rain Light Rain
9:13 PM 50.0 °F 48.2 °F 94% 29.72 in 10.0 mi East 9.2 mph - N/A Rain Light Rain
9:32 PM 50.0 °F 48.2 °F 94% 29.73 in 10.0 mi East 11.5 mph - 0.01 in Rain Light Rain
9:53 PM 50.0 °F 48.2 °F 94% 29.75 in 10.0 mi ESE 9.2 mph - 0.02 in Rain Light Rain
10:12 PM 48.2 °F 46.4 °F 93% 29.76 in 10.0 mi East 8.1 mph 17.3 mph 0.01 in Rain Light Rain
10:32 PM 48.2 °F 46.4 °F 93% 29.76 in 10.0 mi East 9.2 mph - 0.03 in Rain Light Rain
10:53 PM 48.2 °F 46.4 °F 93% 29.76 in 10.0 mi East 8.1 mph - 0.04 in Rain Light Rain
11:12 PM 48.2 °F 46.4 °F 93% 29.76 in 10.0 mi East 10.4 mph - 0.01 in Rain Light Rain
11:32 PM 48.2 °F 46.4 °F 93% 29.76 in 10.0 mi East 8.1 mph - 0.02 in Rain Light Rain
11:53 PM 48.2 °F 46.4 °F 93% 29.76 in 10.0 mi East 9.2 mph - 0.04 in Rain Rain